Location: Robledo de Chavela
(40.5014°N, 4.2377°W)
Time: 18:09:13
(UTC+00:00)

COSMOS 2251 DEB - Visible Passes

Search period start: 13 November 2025 00:00
Search period end: 23 November 2025 00:00
Orbit: 760 x 796 km, 74.0° (Epoch: 13 November)

Date Brightness Start Highest point End Pass type
(mag) Time Alt. Az. Time Alt. Az. Time Alt. Az.
15 Nov ? 06:22:47 10° NNE 06:26:29 19° ENE 06:30:09 10° ESE visible
16 Nov ? 05:49:57 10° NNE 05:52:06 12° NE 05:54:15 10° ENE visible
18 Nov ? 06:22:09 10° N 06:26:57 35° ENE 06:31:45 10° SE visible
19 Nov ? 05:48:35 10° N 05:52:44 23° ENE 05:56:52 10° ESE visible
20 Nov ? 05:15:22 10° NNE 05:18:24 15° NE 05:21:26 10° E visible
21 Nov ? 06:21:59 10° NNW 06:27:13 71° ENE 06:32:28 10° SSE visible
22 Nov ? 05:48:07 10° N 05:53:08 44° ENE 05:58:08 10° SE visible
